Epoch 2006 Apr. 15.0 TT = JDT 2453840.5
T 2006 Mar. 29.65750 TT Bell
q 1.7001589 (2000.0) P Q
n 0.07071145 Peri. 230.58096 +0.89055091 -0.43198481
a 5.7917465 Node 154.05396 +0.44777264 +0.88767726
e 0.7064514 Incl. 19.00870 -0.08011700 +0.15943087
P 13.9
From 170 observations 2006 Nov. 16-2019 Oct. 25, mean residual 0".7.